Wind_Speed
29 27 23 19 17 16 15 14 14 12 11 10 8 7 8 8 7 7 8 9 9 10 12 13 15 16 17 18 19 20 20 20 20 20 19 18 17 16 15 14 12 11 11 13
28 25 22 19 17 15 14 13 13 13 11 9 8 7 6 5 5 5 7 8 9 10 11 13 14 15 16 18 18 20 20 20 20 20 20 20 19 17 16 15 13 11 9 9
24 22 22 19 17 15 13 13 12 12 11 9 7 6 5 3 2 4 6 7 8 9 10 12 13 15 16 17 18 19 20 20 21 21 21 20 19 19 17 16 14 12 10 9
24 23 21 19 16 14 12 11 11 11 10 9 7 5 3 2 0 3 5 6 7 8 9 11 13 14 16 17 18 19 20 21 21 21 21 21 20 20 19 18 17 14 11 9
21 20 18 16 14 12 10 10 10 10 9 7 6 5 3 2 2 2 4 5 6 7 9 10 12 13 14 16 17 19 20 21 21 22 22 22 21 21 20 19 18 16 14 11
19 18 17 15 13 12 11 10 11 10 9 8 6 5 4 5 3 3 3 4 5 6 8 9 10 12 13 15 17 18 19 20 21 21 22 22 22 22 21 21 20 18 16 14
19 17 15 14 13 12 12 11 11 11 10 10 7 6 6 5 4 4 3 3 4 5 6 8 9 11 12 14 16 17 18 19 20 21 21 22 22 22 22 22 21 20 19 17
18 16 13 13 13 13 13 12 12 12 12 11 9 7 6 6 5 4 3 3 3 4 5 7 8 10 12 13 15 16 17 18 19 20 21 21 22 22 22 22 21 21 20 19
16 15 13 13 13 13 12 12 12 13 13 12 9 8 7 6 5 4 4 3 3 3 4 6 7 9 11 13 14 16 17 18 19 20 21 21 22 22 22 22 22 22 21 20
14 14 13 12 12 12 12 12 12 13 13 12 10 9 8 7 5 5 4 3 2 3 3 5 7 9 11 12 14 15 16 18 19 20 20 21 22 22 22 23 22 22 22 21
13 12 12 12 12 12 12 12 12 12 13 12 11 9 9 8 7 6 4 3 2 1 3 4 6 8 11 12 14 15 16 18 19 20 20 21 22 22 22 22 22 22 22 21
13 13 13 12 12 12 13 13 12 12 12 12 11 8 10 9 8 7 6 4 2 1 3 5 7 9 10 12 14 15 17 18 19 20 21 21 22 22 22 22 22 22 22 21
14 14 14 13 13 13 13 13 13 12 12 12 11 9 11 10 10 8 7 5 3 3 4 6 7 9 11 13 14 15 17 18 19 20 21 21 22 22 23 22 22 22 21 21
16 15 15 15 15 14 14 13 13 13 13 12 11 10 10 10 9 8 7 5 4 4 5 7 8 10 12 13 14 16 17 18 19 20 21 22 22 22 22 22 22 22 21 21
15 15 16 15 15 15 14 14 14 13 13 12 11 10 10 10 10 9 7 6 6 6 7 8 10 11 12 14 15 16 18 19 19 20 21 21 22 22 22 22 22 22 22 21
15 15 15 15 15 15 14 14 14 13 13 13 12 10 11 12 11 9 8 7 7 7 8 9 11 12 13 14 15 17 18 19 20 20 21 21 22 22 22 22 22 22 22 21
14 15 15 15 16 15 12 13 14 14 14 13 12 11 13 12 11 10 9 8 9 9 10 11 12 13 14 15 16 17 18 20 20 21 21 22 22 22 22 23 23 22 22 21
14 15 15 15 16 15 12 15 15 15 14 14 13 13 12 12 11 10 10 10 10 11 12 12 13 14 14 15 16 18 19 20 21 21 22 22 23 23 23 23 23 23 22 22
15 15 15 16 16 13 13 15 16 16 15 15 14 14 13 13 12 12 12 12 12 13 13 13 14 15 15 16 17 19 19 20 21 22 22 23 23 24 24 24 24 24 23 22
17 17 17 17 17 14 13 16 17 16 16 16 16 16 15 14 14 14 14 14 14 14 14 15 15 16 17 17 18 19 20 21 22 22 23 23 24 25 25 25 25 24 24 23
19 19 19 19 19 15 15 16 17 17 16 17 16 16 16 15 16 16 16 16 16 16 16 16 16 17 17 18 19 20 21 22 23 23 24 25 26 26 26 26 25 25 25 24
21 21 21 21 20 16 18 18 18 17 17 17 17 17 17 17 17 17 17 17 17 17 17 17 17 17 18 19 20 21 22 23 24 25 26 27 27 28 28 27 27 26 26 25
24 24 24 24 22 21 20 20 20 19 19 19 19 18 19 18 18 19 19 19 19 19 18 18 18 19 19 20 21 22 23 25 26 27 28 29 29 29 29 28 28 27 27 25
27 27 27 26 24 24 24 23 22 22 21 21 21 20 20 20 20 20 20 20 20 20 20 19 19 20 21 22 23 24 25 26 28 28 29 30 31 30 30 29 28 28 27 26
31 31 30 29 27 27 26 25 25 25 24 23 22 22 21 21 21 21 21 21 21 21 21 21 21 21 22 24 25 26 27 28 30 30 31 32 32 31 31 30 30 29 28 27
34 35 34 33 31 31 29 28 28 27 25 25 24 24 23 23 22 22 22 22 22 22 22 22 23 24 24 25 27 28 29 30 31 32 33 33 33 32 32 31 31 30 28 27
Wind_Direction
217 221 226 233 240 249 255 265 273 283 289 300 316 329 330 332 342 0 19 25 22 15 12 11 12 13 13 11 9 9 8 6 6 5 3 2 358 353 348 342 332 311 287 269
216 220 224 229 235 244 253 265 276 284 291 299 312 324 324 326 342 12 31 31 27 19 15 15 17 18 16 13 12 13 12 12 11 10 9 7 6 4 1 358 350 337 315 287
215 218 223 226 230 237 251 263 274 281 289 294 306 313 311 314 345 27 37 34 29 20 18 21 22 20 17 16 16 16 16 16 15 14 13 12 11 10 8 6 2 354 340 318
209 214 221 225 230 238 252 258 267 276 280 290 296 291 281 264 13 44 42 36 28 25 25 26 25 23 21 21 20 20 19 19 18 17 16 16 14 13 11 9 7 3 354 338
207 213 219 223 231 238 249 254 262 271 274 276 273 255 227 204 162 88 58 38 30 30 29 28 26 24 23 23 22 21 21 20 20 19 18 17 17 16 14 12 9 7 2 354
201 210 217 224 231 239 245 249 256 261 263 258 248 219 186 174 157 111 75 47 36 32 32 29 27 24 22 21 20 20 19 19 19 19 19 18 18 17 15 14 12 9 6 0
200 207 215 223 230 238 244 248 251 253 250 243 234 203 170 161 143 117 93 67 49 42 34 28 25 22 20 19 18 17 17 17 17 17 17 16 15 14 13 12 10 9 6 2
198 203 211 220 230 237 241 245 250 250 250 242 229 195 172 155 141 129 114 92 68 48 36 29 24 20 17 16 14 13 13 13 13 13 12 12 12 12 11 11 10 8 6 4
196 199 211 222 229 234 239 244 248 247 249 240 224 195 174 166 155 146 133 116 83 54 36 26 20 16 13 11 10 9 8 8 7 7 6 7 8 9 9 9 9 8 7 6
200 206 213 223 228 232 237 240 238 239 242 239 225 201 189 180 169 153 142 127 96 61 32 17 11 8 6 5 3 3 3 3 2 2 2 2 4 4 5 5 5 5 5 5
214 217 218 226 230 231 232 233 234 235 236 233 224 199 193 186 176 168 165 156 130 55 8 359 358 358 357 357 356 356 357 357 357 357 358 358 359 0 0 1 2 2 2 2
230 226 224 231 236 237 233 230 228 230 232 228 219 199 198 189 182 181 182 184 189 302 332 338 343 346 347 348 348 349 350 352 353 354 354 355 356 358 358 359 359 0 1 1
236 237 238 237 238 238 233 229 226 226 227 225 222 205 200 190 188 189 192 199 225 274 306 320 329 334 338 340 342 343 345 347 349 351 352 353 355 356 357 357 357 358 359 359
241 244 244 242 241 239 234 230 226 223 221 221 218 206 199 194 195 198 203 216 242 274 296 311 320 326 330 333 336 338 340 343 345 347 349 351 352 353 354 356 356 356 356 357
246 247 246 244 244 242 234 230 228 224 218 218 214 203 197 203 208 212 220 232 251 274 291 304 313 319 324 328 331 333 335 338 340 342 345 347 348 349 351 353 354 355 355 355
248 248 246 243 243 239 230 225 226 224 222 220 215 202 205 209 215 221 230 243 260 275 288 299 308 314 319 323 326 329 332 334 336 338 341 343 345 347 348 350 352 353 353 352
245 246 243 238 237 234 226 224 223 221 222 223 218 215 213 213 222 228 237 251 266 277 287 295 303 310 315 319 322 326 329 331 332 335 337 338 341 343 344 346 347 348 349 349
242 242 239 237 238 236 221 224 224 223 225 227 225 225 223 223 231 238 247 257 267 276 284 292 299 306 311 315 319 323 326 328 330 332 333 335 337 339 340 341 342 342 343 344
241 240 239 239 240 232 228 232 232 231 230 233 232 232 231 234 240 246 252 259 268 276 283 290 297 303 308 313 317 321 324 327 329 330 331 332 333 334 335 336 337 337 338 339
242 240 240 241 241 234 230 235 237 237 235 235 235 235 236 239 245 251 256 263 270 276 282 289 295 300 305 310 314 318 322 325 327 328 329 330 330 331 331 331 331 332 332 333
246 243 242 243 244 237 235 238 239 240 237 236 237 239 241 245 249 254 260 266 271 276 282 287 292 297 302 307 312 316 320 323 325 326 327 327 327 327 327 327 327 327 327 328
246 245 243 244 244 241 240 239 240 241 241 242 243 244 246 249 253 257 261 266 271 275 280 285 290 295 300 305 310 314 317 320 323 324 324 325 325 325 325 325 324 324 324 324
247 246 245 245 246 246 246 244 243 243 243 245 247 248 249 252 255 259 263 266 270 275 279 284 288 293 298 303 307 311 314 317 319 321 322 322 323 323 323 322 322 321 321 321
248 247 246 246 245 247 248 248 248 247 246 247 248 250 252 254 257 260 264 267 271 275 279 283 287 291 296 300 304 307 310 313 316 318 319 320 320 320 320 319 319 318 318 318
247 250 250 248 246 246 247 248 249 249 249 250 251 253 254 256 258 261 264 268 271 274 277 281 285 289 293 298 301 304 307 310 312 314 315 317 317 317 316 316 315 314 314 313
245 248 250 250 249 248 246 247 249 251 252 252 254 255 256 258 260 262 265 268 270 273 276 280 283 287 291 295 298 301 304 306 308 310 312 314 314 314 314 314 312 311 310 309
Height
5850 5855 5859 5862 5865 5866 5867 5868 5868 5869 5869 5869 5867 5866 5865 5863 5862 5861 5859 5858 5857 5855 5853 5850 5846 5843 5839 5835 5832 5827 5823 5818 5814 5809 5805 5801 5797 5794 5790 5787 5784 5782 5781 5781
5849 5853 5857 5859 5862 5863 5864 5865 5866 5867 5866 5865 5864 5863 5863 5862 5861 5859 5858 5857 5856 5854 5852 5849 5846 5842 5839 5836 5832 5828 5823 5819 5814 5810 5805 5801 5797 5793 5790 5786 5783 5781 5779 5778
5847 5851 5853 5857 5859 5861 5862 5863 5863 5863 5863 5862 5862 5862 5861 5860 5859 5858 5857 5856 5855 5854 5852 5849 5846 5843 5839 5836 5832 5828 5824 5819 5815 5810 5806 5802 5797 5794 5790 5786 5783 5780 5778 5777
5843 5847 5850 5854 5856 5858 5860 5860 5860 5860 5860 5860 5860 5860 5860 5859 5858 5857 5856 5855 5855 5853 5851 5849 5846 5843 5840 5837 5833 5829 5824 5820 5815 5811 5807 5802 5798 5794 5790 5786 5783 5780 5778 5776
5842 5846 5848 5852 5854 5856 5857 5857 5858 5858 5858 5858 5858 5859 5859 5858 5857 5856 5855 5855 5854 5853 5851 5849 5846 5844 5841 5838 5834 5830 5825 5821 5817 5812 5808 5803 5799 5795 5791 5787 5783 5780 5777 5775
5841 5844 5847 5850 5852 5853 5854 5856 5856 5856 5856 5856 5856 5857 5857 5856 5856 5855 5854 5854 5853 5852 5851 5849 5847 5844 5842 5838 5835 5831 5827 5822 5818 5814 5809 5805 5801 5796 5792 5788 5784 5780 5777 5774
5839 5843 5845 5847 5849 5851 5852 5854 5854 5854 5854 5854 5854 5854 5855 5854 5854 5854 5854 5853 5853 5852 5851 5849 5847 5845 5842 5839 5835 5832 5828 5824 5819 5815 5811 5806 5802 5797 5793 5789 5785 5781 5777 5773
5838 5841 5843 5845 5847 5848 5849 5851 5852 5852 5852 5852 5852 5852 5853 5853 5853 5853 5853 5853 5852 5852 5851 5849 5847 5845 5842 5839 5836 5832 5828 5824 5820 5816 5812 5808 5803 5799 5794 5790 5785 5781 5777 5773
5837 5840 5842 5843 5844 5845 5846 5847 5849 5850 5850 5850 5850 5850 5851 5850 5851 5851 5852 5852 5852 5851 5850 5849 5847 5845 5842 5839 5836 5833 5829 5825 5821 5817 5813 5808 5804 5800 5795 5791 5786 5781 5777 5773
5836 5839 5840 5841 5842 5843 5844 5844 5845 5846 5847 5847 5847 5848 5849 5849 5850 5850 5851 5851 5851 5851 5850 5849 5847 5845 5842 5839 5836 5833 5829 5825 5821 5817 5813 5809 5804 5800 5795 5791 5786 5782 5777 5773
5835 5838 5839 5840 5840 5840 5841 5842 5842 5843 5844 5845 5845 5849 5848 5848 5849 5849 5850 5850 5850 5850 5849 5848 5846 5844 5842 5839 5836 5832 5829 5825 5821 5817 5813 5809 5804 5800 5796 5791 5786 5782 5777 5773
5834 5835 5836 5837 5838 5838 5838 5839 5840 5841 5842 5842 5843 5849 5846 5847 5847 5848 5849 5849 5849 5849 5848 5847 5845 5843 5841 5838 5835 5832 5828 5825 5821 5817 5813 5808 5804 5800 5795 5791 5786 5782 5777 5773
5832 5833 5834 5835 5837 5837 5836 5836 5837 5838 5839 5840 5841 5846 5844 5845 5846 5847 5847 5847 5848 5847 5847 5845 5844 5842 5839 5837 5834 5831 5827 5824 5820 5816 5812 5808 5803 5799 5795 5790 5786 5782 5777 5773
5829 5830 5832 5833 5832 5833 5833 5834 5834 5835 5836 5837 5839 5841 5842 5844 5844 5845 5845 5846 5846 5845 5845 5844 5842 5840 5838 5835 5832 5829 5826 5822 5819 5815 5811 5807 5803 5798 5794 5790 5785 5781 5776 5772
5827 5827 5828 5828 5829 5830 5831 5831 5832 5833 5834 5835 5837 5839 5841 5841 5842 5843 5843 5844 5844 5843 5843 5841 5840 5838 5836 5833 5830 5827 5824 5821 5817 5813 5810 5806 5802 5798 5793 5789 5784 5780 5775 5771
5824 5824 5825 5825 5826 5826 5827 5829 5830 5831 5832 5833 5835 5837 5838 5839 5840 5841 5841 5841 5841 5841 5840 5839 5837 5836 5833 5831 5828 5825 5822 5819 5815 5811 5808 5804 5800 5796 5792 5788 5783 5779 5774 5770
5820 5821 5822 5822 5822 5823 5825 5827 5827 5828 5830 5831 5832 5835 5835 5836 5837 5838 5838 5838 5838 5838 5837 5836 5835 5833 5831 5828 5826 5823 5820 5816 5813 5809 5806 5802 5798 5794 5790 5786 5782 5777 5773 5769
5818 5818 5818 5819 5820 5821 5826 5823 5824 5826 5827 5828 5830 5831 5832 5833 5834 5834 5835 5835 5835 5835 5834 5833 5832 5830 5828 5825 5823 5820 5817 5814 5810 5807 5803 5799 5795 5792 5788 5784 5780 5776 5771 5767
5815 5815 5816 5816 5817 5819 5821 5822 5822 5823 5825 5826 5827 5828 5829 5830 5830 5831 5832 5832 5832 5831 5830 5829 5828 5826 5824 5822 5819 5817 5814 5811 5807 5804 5800 5797 5793 5789 5785 5781 5777 5773 5769 5765
5811 5812 5813 5813 5813 5815 5819 5819 5818 5821 5822 5822 5823 5824 5825 5826 5827 5828 5827 5828 5827 5827 5826 5825 5824 5822 5820 5818 5816 5813 5810 5807 5804 5800 5797 5793 5790 5786 5782 5778 5774 5770 5766 5762
5807 5808 5809 5809 5809 5812 5815 5814 5815 5818 5819 5819 5819 5820 5821 5822 5823 5823 5823 5823 5823 5822 5822 5821 5819 5818 5816 5814 5811 5809 5806 5803 5800 5797 5793 5790 5786 5782 5778 5774 5770 5767 5763 5759
5802 5803 5804 5804 5805 5810 5809 5810 5811 5812 5813 5814 5814 5815 5816 5817 5817 5818 5818 5818 5818 5817 5817 5816 5814 5813 5811 5809 5807 5804 5802 5799 5796 5792 5789 5785 5781 5777 5773 5770 5766 5762 5758 5755
5796 5798 5798 5799 5802 5803 5803 5804 5805 5806 5808 5808 5809 5810 5811 5811 5812 5812 5812 5812 5812 5812 5811 5810 5809 5807 5806 5804 5802 5799 5797 5794 5791 5788 5784 5780 5776 5772 5768 5765 5761 5757 5753 5750
5789 5790 5791 5793 5795 5796 5797 5798 5799 5800 5801 5802 5803 5804 5805 5805 5806 5806 5806 5806 5806 5805 5805 5804 5803 5802 5800 5798 5796 5794 5791 5789 5786 5782 5779 5775 5771 5767 5763 5759 5756 5752 5748 5745
5781 5782 5783 5785 5787 5788 5790 5790 5791 5793 5794 5795 5796 5797 5798 5799 5799 5799 5799 5799 5799 5799 5798 5798 5797 5796 5794 5792 5790 5788 5785 5783 5780 5776 5773 5769 5766 5762 5758 5754 5750 5746 5743 5739
5773 5773 5773 5776 5778 5779 5781 5782 5783 5785 5786 5787 5788 5789 5790 5791 5792 5792 5792 5792 5792 5792 5791 5791 5790 5789 5787 5786 5784 5781 5779 5776 5773 5770 5766 5763 5759 5755 5751 5748 5744 5740 5737 5733